Home > Time Zones > World Clock > Weather > Italy > Genoa > Past weeks

Flag for Italy Weather past 2 weeks in Genoa, Italy

Now
48 °F

Scattered showers. Scattered clouds.


Feels Like: 44 °F
Forecast: 39 / 52 °F
Wind: 9 mph from East

Location: Genova / Sestri

Current Time: Jan 31, 2015 at 4:50:57 PM

Latest Report: Jan 31, 2015 at 4:20 PM


Visibility: N/A

Pressure: 29.09 "Hg

Humidity: 37%

Dew point: 23 °F

Location of GenoaLocation

Historic Weather in Genoa — Graph

°F

Genoa temperature yesterday

Maximum temperature yesterday: 54 °F (at 3:20 PM)
Minimum temperature yesterday: 37 °F (at 6:20 AM)
Average temperature yesterday: 45 °F

Past Weeks' High & Low Weather Summary

 TemperatureHumidityPressure
High61 °F (Jan 16, 8:20 PM)94% (Jan 16, 3:50 PM)30.24 "Hg (Jan 16, 3:50 PM)
Low37 °F (Jan 30, 6:20 AM)16% (Jan 30, 4:50 PM)28.88 "Hg (Jan 30, 4:50 AM)
Average48 °F57%29.78 "Hg
* Reported Jan 16 3:20 PM — Jan 31 3:50 PM, Genoa, Weather by CustomWeather, © 2014

Note: Actual official high and low records may vary slightly from our data, if they occured in-between our weather recording intervals... More about our weather records

Advertising

Genoa weather history for previous 24 hours

 ConditionsComfort  
Time TempWeatherWind HumidityBarometerVisibility
3:50 PM
Jan 31
48 °FThunderstorms. Scattered clouds.13 mph50%29.09 "HgN/A
3:20 PM52 °FThunderstorms. Scattered clouds.7 mph47%29.06 "HgN/A
2:50 PM52 °FScattered clouds.9 mph41%29.06 "HgN/A
2:20 PM54 °FScattered clouds.7 mph41%29.06 "HgN/A
1:50 PM54 °FScattered clouds.8 mph54%29.06 "HgN/A
1:20 PM54 °FScattered clouds.10 mph54%29.06 "HgN/A
12:50 PM54 °FPassing clouds.10 mph54%29.06 "HgN/A
12:20 PM54 °FPassing clouds.12 mph51%29.06 "HgN/A
11:50 AM54 °FPassing clouds.14 mph54%29.06 "HgN/A
11:20 AM54 °FPassing clouds.13 mph54%29.09 "HgN/A
10:50 AM52 °FPassing clouds.5 mph54%29.09 "HgN/A
10:20 AM50 °FPassing clouds.5 mph37%29.06 "HgN/A
9:50 AM48 °FPassing clouds.5 mph37%29.06 "HgN/A
9:20 AM45 °FPassing clouds.6 mph39%29.06 "HgN/A
8:50 AM43 °FPassing clouds.7 mph39%29.06 "HgN/A
8:20 AM41 °FSunny.8 mph42%29.06 "Hg10 mi
7:50 AM41 °FSunny.8 mph39%29.03 "Hg10 mi
7:20 AM41 °FPassing clouds.5 mph39%29.03 "HgN/A
6:50 AM41 °FPassing clouds.6 mph36%29.03 "HgN/A
6:20 AM41 °FClear.6 mph39%29.03 "Hg10 mi
5:50 AM41 °FClear.6 mph42%29.03 "Hg10 mi
5:20 AM41 °FClear.7 mph39%29.03 "Hg10 mi
4:50 AM41 °FPassing clouds.6 mph42%29.03 "HgN/A
3:50 AM41 °FClear.8 mph36%29.03 "Hg10 mi
3:20 AM41 °FPassing clouds.6 mph36%29.03 "HgN/A
2:20 AM39 °FPassing clouds.6 mph36%29.00 "HgN/A
1:50 AM43 °FPassing clouds.7 mph36%29.00 "HgN/A
1:20 AM41 °FClear.7 mph36%29.00 "Hg10 mi
12:50 AM43 °FClear.5 mph29%29.00 "Hg10 mi
12:20 AM43 °FClear.8 mph34%29.00 "Hg10 mi
11:50 PM
Jan 30
43 °FClear.6 mph29%29.00 "Hg10 mi
11:20 PM41 °FPassing clouds.6 mph36%29.00 "HgN/A
10:50 PM43 °FClear.7 mph34%29.00 "Hg10 mi
10:20 PM41 °FClear.6 mph36%28.97 "Hg10 mi
9:50 PM43 °FClear.7 mph36%29.00 "Hg10 mi
9:20 PM43 °FClear.6 mph31%28.97 "Hg10 mi
8:50 PM45 °FPassing clouds.3 mph27%28.97 "HgN/A
8:20 PM45 °FClear.5 mph29%28.97 "Hg10 mi
7:50 PM46 °FPassing clouds.3 mph29%28.97 "HgN/A
7:20 PM48 °FClear.6 mph25%28.97 "Hg10 mi
6:50 PM50 °FPassing clouds.8 mph25%28.97 "HgN/A
6:20 PM50 °FClear.3 mph19%28.94 "Hg10 mi
5:50 PM50 °FClear.3 mph17%28.94 "Hg10 mi
5:20 PM52 °FPassing clouds.10 mph16%28.91 "HgN/A
4:50 PM54 °FPassing clouds.14 mph16%28.91 "HgN/A
4:20 PM54 °FPassing clouds.12 mph18%28.91 "HgN/A
Weather by CustomWeather, © 2014

See weather overviewHow to use our weather pages